Christchurch, New Zealand

1:12 PM NZDT on October 20, 2017 (GMT +1300)
Christchurch International

Weather History for NZCH - August, 2013

Change the Weather History Date:

Wednesday, August 14, 2013

  Actual Average Record
Temperature  
Mean Temperature 49 °F -  
Max Temperature 59 °F 53 °F 64 °F (2002)
Min Temperature 39 °F 35 °F 24 °F (2014)
Degree Days  
Heating Degree Days 16    
Moisture  
Dew Point 36 °F    
Average Humidity 65    
Maximum Humidity 100    
Minimum Humidity 29    
Precipitation  
Precipitation 0.00 in - - ()
Sea Level Pressure  
Sea Level Pressure 29.40 in    
Wind  
Wind Speed 6 mph ()    
Max Wind Speed 15 mph    
Max Gust Speed -    
Visibility 6.2 miles    
Events Rain    
Averages and records for this station are not official NWS values.
T = Trace of Precipitation, MM = Missing Value Source: Averaged Metar Reports

Daily Weather History Graph

Daily Weather History Graph

Search for Another Location

Airport or City:

Trip Planner

Search our weather history database for the weather conditions in past years. The results will help you decide how hot, cold, wet, or windy it might be!

Date:

Astronomy

Aug. 14, 2013 Rise Set
Actual Time 7:26 AM NZST 5:43 PM NZST
Civil Twilight 6:56 AM NZST 6:13 PM NZST
Nautical Twilight 6:22 AM NZST 6:46 PM NZST
Astronomical Twilight 5:49 AM NZST 7:20 PM NZST
Moon 10:48 AM NZST (8/14) 12:24 AM NZST (8/14)
Length of Visible Light 11h 16m
Length of Day
10h 17m
Waxing Crescent, 45% of the Moon is Illuminated
Aug 14
Waxing Crescent
Aug 14
First Quarter
Aug 21
Full
Aug 28
Last Quarter
Sep 5
New

Hourly Weather History & Observations

Time (NZST) Temp. Windchill Dew Point Humidity Pressure Visibility Wind Dir Wind Speed Gust Speed Precip Events Conditions
12:00 AM 50.0 °F - 41.0 °F 71% 29.09 in 6.2 mi North 9.2 mph - N/A   Partly Cloudy
1:00 AM 50.0 °F - 41.0 °F 71% 29.15 in - West 4.6 mph - N/A   Clear
1:25 AM 48.2 °F - 42.8 °F 82% 29.18 in 6.2 mi SW 15.0 mph - N/A Rain Rain Showers
2:00 AM 46.4 °F 41.1 °F 42.8 °F 87% 29.18 in 6.2 mi SW 11.5 mph - N/A Rain Light Rain Showers
3:00 AM 46.4 °F 42.9 °F 44.6 °F 93% 29.21 in 6.2 mi WSW 6.9 mph - N/A Rain Light Rain Showers
4:00 AM 46.4 °F 42.4 °F 44.6 °F 93% 29.24 in 6.2 mi WSW 8.1 mph - N/A Rain Light Rain Showers
5:00 AM 42.8 °F 39.3 °F 41.0 °F 93% 29.27 in 6.2 mi SW 5.8 mph - N/A   Scattered Clouds
6:00 AM 41.0 °F - 39.2 °F 93% 29.33 in 6.2 mi NNE 2.3 mph - N/A   Unknown
7:00 AM 39.2 °F 37.0 °F 39.2 °F 100% 29.36 in 6.2 mi SW 3.5 mph - N/A   Unknown
8:00 AM 39.2 °F 37.0 °F 37.4 °F 93% 29.39 in - SW 3.5 mph - N/A   Clear
9:00 AM 44.6 °F - 41.0 °F 87% 29.42 in - WSW 2.3 mph - N/A   Clear
10:00 AM 50.0 °F - 39.2 °F 66% 29.44 in - SSW 3.5 mph - N/A   Clear
11:00 AM 53.6 °F - 35.6 °F 51% 29.47 in - SSW 4.6 mph - N/A   Clear
12:00 PM 55.4 °F - 33.8 °F 44% 29.47 in - SW 4.6 mph - N/A   Clear
1:00 PM 57.2 °F - 28.4 °F 33% 29.47 in - SW 9.2 mph - N/A   Clear
2:00 PM 59.0 °F - 26.6 °F 29% 29.47 in - West 10.4 mph - N/A   Clear
3:00 PM 59.0 °F - 30.2 °F 34% 29.47 in - WSW 10.4 mph - N/A   Clear
4:00 PM 59.0 °F - 32.0 °F 36% 29.50 in - WSW 8.1 mph - N/A   Clear
5:00 PM 57.2 °F - 28.4 °F 33% 29.50 in - WSW 4.6 mph - N/A   Clear
6:00 PM 50.0 °F - 32.0 °F 50% 29.50 in - West 2.3 mph - N/A   Clear
7:00 PM 46.4 °F 43.5 °F 30.2 °F 53% 29.53 in - WNW 5.8 mph - N/A   Clear
8:00 PM 46.4 °F 43.5 °F 28.4 °F 50% 29.56 in - NW 5.8 mph - N/A   Clear
9:00 PM 44.6 °F 43.1 °F 30.2 °F 57% 29.56 in - NNW 3.5 mph - N/A   Clear
10:00 PM 44.6 °F 42.2 °F 33.8 °F 66% 29.56 in - ENE 4.6 mph - N/A   Clear
11:00 PM 42.8 °F 39.3 °F 33.8 °F 70% 29.59 in - East 5.8 mph - N/A   Clear